Time,TemperatureF,DewpointF,PressureIn,WindDirection,WindDirectionDegrees,WindSpeedMPH,WindSpeedGustMPH,Humidity,HourlyPrecipIn,Conditions,Clouds,dailyrainin,SoftwareType,DateUTC
2013-04-15 00:10:00,70.8,63.0,29.97,NNE,22,2.0,14.0,75,0.00,,,0.00,weatherlink.com 1.10,2013-04-15 04:10:00,
2013-04-15 00:27:00,70.8,63.0,29.96,North,10,2.0,9.0,76,0.00,,,0.00,weatherlink.com 1.10,2013-04-15 04:27:00,
2013-04-15 00:41:00,71.0,63.0,29.96,North,5,1.0,8.0,75,0.00,,,0.00,weatherlink.com 1.10,2013-04-15 04:41:00,
2013-04-15 00:58:00,70.7,63.0,29.96,NNE,20,1.0,5.0,76,0.00,,,0.00,weatherlink.com 1.10,2013-04-15 04:58:00,
2013-04-15 01:15:00,70.8,63.0,29.96,NNE,26,0.0,4.0,77,0.00,,,0.00,weatherlink.com 1.10,2013-04-15 05:15:00,
2013-04-15 01:30:00,71.0,63.0,29.96,North,5,2.0,4.0,77,0.00,,,0.00,weatherlink.com 1.10,2013-04-15 05:30:00,
2013-04-15 01:46:00,71.1,64.0,29.96,North,360,2.0,5.0,78,0.00,,,0.00,weatherlink.com 1.10,2013-04-15 05:46:00,
2013-04-15 02:01:00,71.4,64.0,29.96,North,5,0.0,3.0,77,0.00,,,0.00,weatherlink.com 1.10,2013-04-15 06:01:00,
2013-04-15 02:18:00,71.0,64.0,29.96,East,80,0.0,1.0,78,0.00,,,0.00,weatherlink.com 1.10,2013-04-15 06:18:00,
2013-04-15 02:34:00,70.8,64.0,29.96,East,80,0.0,1.0,78,0.00,,,0.00,weatherlink.com 1.10,2013-04-15 06:34:00,
2013-04-15 02:49:00,70.7,64.0,29.95,ESE,123,1.0,3.0,79,0.00,,,0.00,weatherlink.com 1.10,2013-04-15 06:49:00,
2013-04-15 03:06:00,70.5,64.0,29.95,ESE,122,0.0,3.0,79,0.00,,,0.00,weatherlink.com 1.10,2013-04-15 07:06:00,
2013-04-15 03:54:00,69.2,64.0,29.96,ESE,122,1.0,1.0,82,0.00,,,0.00,weatherlink.com 1.10,2013-04-15 07:54:00,
2013-04-15 04:09:00,69.2,64.0,29.96,ESE,122,0.0,1.0,82,0.00,,,0.00,weatherlink.com 1.10,2013-04-15 08:09:00,
2013-04-15 04:24:00,69.5,64.0,29.97,ESE,122,0.0,0.0,82,0.00,,,0.00,weatherlink.com 1.10,2013-04-15 08:24:00,
2013-04-15 04:40:00,69.8,64.0,29.96,ESE,122,0.0,0.0,82,0.00,,,0.00,weatherlink.com 1.10,2013-04-15 08:40:00,
2013-04-15 04:57:00,69.3,64.0,29.94,ESE,122,0.0,1.0,84,0.00,,,0.00,weatherlink.com 1.10,2013-04-15 08:57:00,
2013-04-15 05:14:00,69.1,65.0,29.95,ESE,122,0.0,1.0,85,0.00,,,0.00,weatherlink.com 1.10,2013-04-15 09:14:00,
2013-04-15 05:28:00,68.9,65.0,29.94,ESE,122,0.0,0.0,86,0.00,,,0.00,weatherlink.com 1.10,2013-04-15 09:28:00,
2013-04-15 05:44:00,68.9,65.0,29.94,ESE,122,0.0,0.0,87,0.00,,,0.00,weatherlink.com 1.10,2013-04-15 09:44:00,
2013-04-15 06:00:00,69.0,65.0,29.94,ESE,122,0.0,0.0,86,0.00,,,0.00,weatherlink.com 1.10,2013-04-15 10:00:00,
2013-04-15 06:18:00,70.2,64.0,29.94,South,177,0.0,1.0,80,0.00,,,0.00,weatherlink.com 1.10,2013-04-15 10:18:00,
2013-04-15 06:32:00,70.6,64.0,29.93,South,171,0.0,1.0,79,0.00,,,0.00,weatherlink.com 1.10,2013-04-15 10:32:00,
2013-04-15 06:50:00,71.3,64.0,29.93,SSW,194,3.0,5.0,77,0.00,,,0.00,weatherlink.com 1.10,2013-04-15 10:50:00,
2013-04-15 07:05:00,71.5,64.0,29.94,South,171,1.0,6.0,78,0.00,,,0.00,weatherlink.com 1.10,2013-04-15 11:05:00,
2013-04-15 07:20:00,71.6,65.0,29.95,South,188,0.0,2.0,79,0.00,,,0.00,weatherlink.com 1.10,2013-04-15 11:20:00,
2013-04-15 07:38:00,71.5,65.0,29.95,SSE,151,2.0,3.0,79,0.00,,,0.00,weatherlink.com 1.10,2013-04-15 11:38:00,
2013-04-15 07:52:00,71.7,65.0,29.96,NE,40,1.0,3.0,80,0.00,,,0.00,weatherlink.com 1.10,2013-04-15 11:52:00,
2013-04-15 08:09:00,72.2,66.0,29.96,SSE,151,1.0,3.0,80,0.00,,,0.00,weatherlink.com 1.10,2013-04-15 12:09:00,
2013-04-15 08:24:00,72.6,66.0,29.96,East,101,1.0,9.0,79,0.00,,,0.00,weatherlink.com 1.10,2013-04-15 12:24:00,
2013-04-15 08:56:00,73.8,67.0,29.96,SE,143,6.0,7.0,78,0.00,,,0.00,weatherlink.com 1.10,2013-04-15 12:56:00,
2013-04-15 09:12:00,73.9,67.0,29.96,SSE,157,2.0,6.0,80,0.00,,,0.00,weatherlink.com 1.10,2013-04-15 13:12:00,
2013-04-15 09:30:00,74.4,68.0,29.97,SSE,150,1.0,7.0,79,0.00,,,0.00,weatherlink.com 1.10,2013-04-15 13:30:00,
2013-04-15 09:44:00,74.8,68.0,29.98,SSE,155,4.0,5.0,79,0.00,,,0.00,weatherlink.com 1.10,2013-04-15 13:44:00,
2013-04-15 10:00:00,76.2,68.0,29.98,SE,132,1.0,7.0,76,0.00,,,0.00,weatherlink.com 1.10,2013-04-15 14:00:00,
2013-04-15 10:17:00,76.7,67.0,29.98,SE,140,1.0,8.0,73,0.00,,,0.00,weatherlink.com 1.10,2013-04-15 14:17:00,
2013-04-15 10:32:00,77.4,67.0,29.98,SE,142,3.0,10.0,71,0.00,,,0.00,weatherlink.com 1.10,2013-04-15 14:32:00,
2013-04-15 10:49:00,78.0,67.0,29.99,South,185,0.0,5.0,70,0.00,,,0.00,weatherlink.com 1.10,2013-04-15 14:49:00,
2013-04-15 11:06:00,80.1,68.0,30.00,East,82,0.0,4.0,67,0.00,,,0.00,weatherlink.com 1.10,2013-04-15 15:06:00,
2013-04-15 11:20:00,81.1,68.0,30.00,SSE,149,2.0,5.0,64,0.00,,,0.00,weatherlink.com 1.10,2013-04-15 15:20:00,
2013-04-15 11:37:00,83.7,66.0,30.01,North,355,2.0,7.0,56,0.00,,,0.00,weatherlink.com 1.10,2013-04-15 15:37:00,
2013-04-15 11:52:00,83.0,70.0,30.02,NNW,333,2.0,5.0,64,0.00,,,0.00,weatherlink.com 1.10,2013-04-15 15:52:00,
2013-04-15 12:27:00,81.7,70.0,30.02,North,355,6.0,7.0,68,0.00,,,0.00,weatherlink.com 1.10,2013-04-15 16:27:00,
2013-04-15 12:44:00,82.1,70.0,30.02,West,269,1.0,6.0,67,0.00,,,0.00,weatherlink.com 1.10,2013-04-15 16:44:00,
2013-04-15 12:56:00,81.7,69.0,30.01,North,5,1.0,8.0,66,0.00,,,0.00,weatherlink.com 1.10,2013-04-15 16:56:00,
2013-04-15 13:14:00,82.5,70.0,30.01,West,272,3.0,7.0,66,0.00,,,0.00,weatherlink.com 1.10,2013-04-15 17:14:00,
2013-04-15 13:27:00,83.8,70.0,30.01,WNW,283,4.0,7.0,63,0.00,,,0.00,weatherlink.com 1.10,2013-04-15 17:27:00,
2013-04-15 13:43:00,82.7,70.0,30.00,NNW,338,1.0,5.0,66,0.00,,,0.00,weatherlink.com 1.10,2013-04-15 17:43:00,
2013-04-15 14:32:00,85.6,71.0,30.00,WNW,296,1.0,6.0,62,0.00,,,0.00,weatherlink.com 1.10,2013-04-15 18:32:00,
2013-04-15 14:47:00,82.9,70.0,30.00,NNW,329,6.0,8.0,65,0.00,,,0.00,weatherlink.com 1.10,2013-04-15 18:47:00,
2013-04-15 15:04:00,83.7,71.0,29.99,North,5,1.0,9.0,65,0.00,,,0.00,weatherlink.com 1.10,2013-04-15 19:04:00,
2013-04-15 15:20:00,83.1,71.0,29.99,SW,223,0.0,9.0,66,0.00,,,0.00,weatherlink.com 1.10,2013-04-15 19:20:00,
2013-04-15 15:35:00,83.8,70.0,29.98,WNW,294,3.0,6.0,63,0.00,,,0.00,weatherlink.com 1.10,2013-04-15 19:35:00,
2013-04-15 15:52:00,83.2,71.0,29.98,ENE,65,1.0,8.0,67,0.00,,,0.00,weatherlink.com 1.10,2013-04-15 19:52:00,
2013-04-15 16:09:00,83.0,70.0,29.98,North,11,2.0,8.0,66,0.00,,,0.00,weatherlink.com 1.10,2013-04-15 20:09:00,
2013-04-15 16:24:00,83.6,71.0,29.97,NNE,30,1.0,6.0,65,0.00,,,0.00,weatherlink.com 1.10,2013-04-15 20:24:00,
2013-04-15 16:39:00,83.2,70.0,29.97,North,360,2.0,7.0,65,0.00,,,0.00,weatherlink.com 1.10,2013-04-15 20:39:00,
2013-04-15 16:55:00,83.1,70.0,29.97,West,271,1.0,8.0,64,0.00,,,0.00,weatherlink.com 1.10,2013-04-15 20:55:00,
2013-04-15 17:12:00,81.8,69.0,29.97,WNW,302,2.0,6.0,66,0.00,,,0.00,weatherlink.com 1.10,2013-04-15 21:12:00,
2013-04-15 17:28:00,83.2,69.0,29.97,West,261,1.0,7.0,63,0.00,,,0.00,weatherlink.com 1.10,2013-04-15 21:28:00,
2013-04-15 17:44:00,82.1,69.0,29.98,NW,313,3.0,6.0,65,0.00,,,0.00,weatherlink.com 1.10,2013-04-15 21:44:00,
2013-04-15 17:59:00,81.3,68.0,29.98,North,355,3.0,5.0,64,0.00,,,0.00,weatherlink.com 1.10,2013-04-15 21:59:00,
2013-04-15 18:15:00,81.5,69.0,29.98,North,5,2.0,6.0,65,0.00,,,0.00,weatherlink.com 1.10,2013-04-15 22:15:00,
2013-04-15 18:33:00,81.1,68.0,29.98,NNE,32,0.0,6.0,65,0.00,,,0.00,weatherlink.com 1.10,2013-04-15 22:33:00,
2013-04-15 18:48:00,79.7,67.0,29.99,WSW,246,1.0,5.0,66,0.00,,,0.00,weatherlink.com 1.10,2013-04-15 22:48:00,
2013-04-15 19:03:00,79.5,68.0,29.99,NW,313,1.0,4.0,69,0.00,,,0.00,weatherlink.com 1.10,2013-04-15 23:03:00,
2013-04-15 19:19:00,78.4,67.0,29.99,North,5,2.0,4.0,69,0.00,,,0.00,weatherlink.com 1.10,2013-04-15 23:19:00,
2013-04-15 19:36:00,77.8,68.0,30.00,NNW,332,1.0,3.0,71,0.00,,,0.00,weatherlink.com 1.10,2013-04-15 23:36:00,
2013-04-15 19:51:00,77.0,67.0,30.00,NNW,328,2.0,6.0,72,0.00,,,0.00,weatherlink.com 1.10,2013-04-15 23:51:00,
2013-04-15 20:07:00,76.2,67.0,30.01,North,355,0.0,3.0,73,0.00,,,0.00,weatherlink.com 1.10,2013-04-16 00:07:00,
2013-04-15 20:22:00,75.7,67.0,30.01,NNW,336,0.0,1.0,74,0.00,,,0.00,weatherlink.com 1.10,2013-04-16 00:22:00,
2013-04-15 20:39:00,75.3,67.0,30.02,WNW,296,2.0,3.0,75,0.00,,,0.00,weatherlink.com 1.10,2013-04-16 00:39:00,
2013-04-15 20:56:00,75.2,67.0,30.03,NNW,331,0.0,2.0,75,0.00,,,0.00,weatherlink.com 1.10,2013-04-16 00:56:00,
2013-04-15 21:14:00,75.3,67.0,30.04,North,350,0.0,3.0,75,0.00,,,0.00,weatherlink.com 1.10,2013-04-16 01:14:00,
2013-04-15 21:27:00,75.0,67.0,30.04,North,350,0.0,2.0,75,0.00,,,0.00,weatherlink.com 1.10,2013-04-16 01:27:00,
2013-04-15 21:44:00,74.6,67.0,30.05,North,350,0.0,1.0,77,0.00,,,0.00,weatherlink.com 1.10,2013-04-16 01:44:00,
2013-04-15 21:59:00,74.3,67.0,30.05,North,350,0.0,0.0,78,0.00,,,0.00,weatherlink.com 1.10,2013-04-16 01:59:00,
2013-04-15 22:15:00,73.9,67.0,30.06,North,350,0.0,0.0,79,0.00,,,0.00,weatherlink.com 1.10,2013-04-16 02:15:00,
2013-04-15 22:30:00,73.4,67.0,30.06,North,350,0.0,0.0,81,0.00,,,0.00,weatherlink.com 1.10,2013-04-16 02:30:00,
2013-04-15 22:48:00,73.1,67.0,30.06,North,350,0.0,0.0,82,0.00,,,0.00,weatherlink.com 1.10,2013-04-16 02:48:00,
2013-04-15 23:03:00,72.7,67.0,30.06,North,350,0.0,1.0,83,0.00,,,0.00,weatherlink.com 1.10,2013-04-16 03:03:00,
2013-04-15 23:18:00,72.4,67.0,30.06,North,350,0.0,0.0,83,0.00,,,0.00,weatherlink.com 1.10,2013-04-16 03:18:00,
2013-04-15 23:35:00,72.3,67.0,30.07,ENE,76,2.0,5.0,84,0.00,,,0.00,weatherlink.com 1.10,2013-04-16 03:35:00,
2013-04-15 23:51:00,73.0,68.0,30.07,NE,42,0.0,3.0,83,0.00,,,0.00,weatherlink.com 1.10,2013-04-16 03:51:00,